Theta_e
316 318 319 320 318 317 317 317 317 318 318 318 319 319 319 319 317 317 318 318 316 316 316 316 315 315 316 316 315 315 316 316 315 315 315 315 315 315 315 315 315 315 315 315 314 313 312 311 311 310 310 309 308 307 306 305 305 304 304 304 305 305 305 305 305 305 305 304 303 302 301 300 299 299 298 298 298 298 298 298 298 298 298 298 298 298
317 319 319 318 316 317 317 318 318 318 318 318 319 319 319 319 318 317 319 318 315 316 316 316 316 315 316 316 316 315 316 315 315 314 315 315 315 315 315 315 315 315 315 314 313 312 311 311 310 309 309 308 307 306 305 305 304 304 304 304 305 305 305 306 306 306 306 305 304 303 302 301 299 299 298 298 298 298 298 298 297 298 298 298 297 297
319 318 317 317 316 316 317 317 319 318 319 319 319 319 318 318 318 317 318 316 313 315 317 316 315 315 315 316 316 316 315 315 315 315 315 315 315 315 315 315 315 315 314 313 312 311 311 310 309 308 308 307 307 306 305 304 304 304 304 305 305 305 306 306 306 306 305 305 303 302 301 300 299 298 298 297 297 297 297 297 297 297 297 297 297 297
318 317 316 316 316 315 316 316 318 318 318 319 318 318 317 318 319 318 318 316 313 314 316 316 315 315 314 315 315 315 315 315 316 316 316 316 316 315 316 316 315 315 313 312 312 311 311 310 308 308 307 307 306 305 304 304 304 304 305 306 306 306 306 306 306 305 305 303 301 300 299 298 298 297 297 297 297 297 297 296 296 297 297 297 297 297
317 317 316 317 317 317 317 318 320 319 316 319 320 318 317 318 319 318 318 319 316 315 316 316 316 315 315 316 316 316 315 315 315 315 316 316 316 316 316 316 316 315 314 312 312 311 310 310 308 307 307 306 305 305 305 304 305 305 306 306 307 307 306 306 305 304 303 302 300 299 298 297 296 296 296 297 297 297 297 296 296 296 297 297 297 296
316 316 317 318 319 321 320 319 321 322 317 317 321 321 319 318 319 320 322 322 320 319 317 318 317 316 317 318 318 318 318 317 315 315 315 315 316 316 315 316 315 315 313 313 312 311 310 310 308 307 307 306 306 305 305 305 305 305 306 306 306 306 305 305 304 304 303 302 301 300 299 298 298 297 297 297 298 297 297 296 296 296 296 296 296 296
316 316 317 319 320 321 323 320 320 323 318 315 322 328 324 320 321 323 324 322 322 321 318 320 320 316 315 316 317 318 320 319 317 317 316 315 315 316 315 315 315 314 313 312 312 310 310 310 308 308 308 307 307 306 305 305 304 305 305 306 306 305 305 304 304 303 303 302 301 301 300 300 300 299 299 298 298 297 297 296 295 296 296 296 296 296
317 316 318 320 320 322 321 319 319 320 318 317 323 327 324 321 322 323 322 322 322 319 318 321 321 318 315 315 317 317 318 318 317 317 317 314 314 315 314 314 314 314 314 312 312 310 310 310 309 310 310 309 308 307 306 305 305 305 305 305 305 305 305 304 304 303 303 302 302 301 300 299 299 298 298 298 297 297 296 296 295 295 295 295 295 296
321 320 321 322 321 320 318 319 324 323 319 320 322 321 320 320 319 319 320 321 320 317 318 322 321 318 316 315 317 317 316 317 316 316 316 314 313 314 315 315 314 314 314 313 312 311 310 310 310 310 310 310 308 307 307 308 307 306 305 305 305 305 305 304 304 303 303 302 302 301 300 299 298 297 297 297 296 296 296 296 295 295 295 295 295 295
321 318 317 320 321 319 318 320 324 326 321 320 321 319 319 320 318 318 319 318 318 316 318 321 320 317 315 315 318 317 316 317 316 315 315 314 313 314 314 315 315 314 315 314 312 312 311 310 310 309 309 309 309 308 308 308 307 306 305 305 305 305 305 305 304 304 303 302 302 301 300 299 298 297 296 296 296 296 296 296 295 295 295 295 295 295
315 310 311 318 319 316 318 316 315 319 318 317 318 317 320 321 318 318 318 316 317 317 316 318 319 317 316 318 319 318 318 318 316 315 315 314 313 314 315 315 315 315 314 314 312 311 310 309 309 308 308 309 309 308 308 307 307 306 306 306 306 305 306 306 305 305 304 303 302 301 300 299 298 298 297 296 296 296 296 296 295 294 294 294 294 295
314 312 312 316 314 312 317 317 311 311 314 317 318 316 319 321 318 318 317 316 318 317 316 320 320 317 317 318 318 317 319 319 317 316 316 316 314 313 315 315 315 315 314 313 311 310 309 308 307 307 308 309 309 308 308 308 308 307 307 306 305 305 306 306 306 306 305 304 303 301 300 299 298 298 298 297 297 297 296 296 295 294 294 294 294 294
317 315 314 315 313 312 317 319 313 311 313 318 318 315 317 320 319 320 320 321 320 317 317 321 321 319 317 317 317 316 317 318 317 315 315 315 315 314 315 315 315 315 314 313 311 309 308 308 307 308 309 310 309 309 309 309 309 308 307 306 306 306 307 307 306 306 306 305 303 302 300 299 298 297 297 297 297 297 296 296 295 294 294 294 294 294
322 319 316 315 315 314 315 315 315 316 315 315 317 318 320 320 318 319 322 323 321 318 319 319 321 321 317 316 319 317 316 318 316 314 315 315 315 315 315 316 315 315 315 313 311 309 309 309 309 310 311 311 310 310 311 310 309 308 307 307 306 306 307 307 306 306 306 305 304 302 301 299 298 297 297 296 296 296 296 295 295 294 294 294 294 294
322 319 318 318 316 315 314 313 315 318 315 311 315 317 319 320 317 316 318 318 317 319 319 318 320 321 316 318 322 319 316 316 314 315 315 315 316 315 315 316 315 315 313 312 311 310 310 310 311 312 311 312 312 311 311 311 310 309 307 307 307 307 307 308 307 306 306 306 305 303 301 300 298 297 296 296 296 295 295 295 294 294 293 293 293 293
317 317 320 318 315 314 314 314 314 318 318 314 314 316 317 319 318 316 318 317 316 319 318 317 321 320 315 316 319 318 318 316 314 314 314 314 316 315 315 316 314 314 313 311 310 310 310 311 311 312 312 312 312 312 312 311 310 309 308 308 308 307 308 309 308 307 306 306 305 304 303 301 299 297 296 296 295 295 295 295 294 293 293 293 293 293
317 320 324 317 313 314 313 313 315 318 319 317 316 317 317 319 319 318 319 317 317 318 316 315 318 317 314 316 317 316 316 316 317 316 314 314 314 314 315 315 314 314 312 311 311 310 311 311 312 312 312 312 312 312 312 311 311 310 310 309 308 307 307 308 308 307 306 305 305 305 303 302 300 298 297 296 295 295 294 294 294 293 293 292 292 293
316 318 323 318 315 314 308 309 315 315 316 318 318 318 319 320 320 318 317 318 318 318 316 315 316 315 315 317 318 317 316 315 317 317 315 314 313 312 314 315 314 314 312 311 311 311 311 312 312 312 312 312 312 312 312 312 311 311 310 310 309 308 308 309 309 308 307 306 306 305 305 303 301 299 298 296 295 294 294 294 293 293 292 292 292 292
319 316 319 319 319 314 307 309 315 313 313 315 316 316 319 321 321 318 317 317 317 316 315 316 317 315 314 315 316 317 318 317 315 316 316 315 314 313 313 315 314 314 313 311 310 311 311 312 312 312 312 312 312 312 312 311 311 310 310 309 309 308 307 308 308 307 307 307 306 305 305 304 302 300 298 296 295 294 294 293 293 293 292 292 292 292
319 317 317 317 316 313 311 313 316 315 314 312 311 314 316 317 319 320 317 316 315 315 315 316 317 316 316 316 316 317 318 317 315 316 316 316 314 313 313 315 315 314 313 312 311 311 311 312 312 312 313 312 312 312 312 311 311 311 310 310 309 308 307 307 307 307 307 307 306 305 304 304 303 301 299 297 295 294 293 293 293 292 292 292 292 292
317 317 316 315 312 313 314 314 314 316 316 313 312 314 314 313 315 318 317 316 316 315 315 316 316 316 316 316 317 318 317 316 316 317 318 317 314 313 314 314 314 314 313 313 312 311 311 311 312 312 312 313 312 312 312 312 312 311 311 311 310 309 308 308 308 307 307 307 306 305 304 304 303 302 299 297 295 294 293 293 292 292 292 292 292 292
317 318 316 316 314 313 314 313 312 314 315 314 313 313 313 313 314 316 315 316 316 316 315 317 317 316 316 317 318 317 317 318 318 319 321 319 314 314 315 314 313 313 313 313 312 312 312 311 311 312 312 312 312 312 313 312 312 312 311 311 310 309 309 309 309 308 308 307 305 305 304 303 302 301 300 298 296 294 293 292 292 291 291 291 291 291
316 317 316 317 316 314 314 315 316 315 315 315 314 313 313 313 313 314 314 314 316 316 315 316 317 316 315 316 317 317 317 318 317 317 319 317 313 314 314 313 313 313 312 313 312 312 313 312 311 312 312 312 313 312 312 312 312 312 312 311 310 309 308 308 309 308 307 306 305 304 302 301 301 300 299 298 296 294 293 292 291 291 291 291 291 291
316 316 316 315 316 316 316 318 317 315 314 315 316 316 314 313 313 314 314 314 315 316 316 316 316 316 315 315 317 318 318 317 314 314 315 314 313 313 314 313 314 313 312 313 312 312 312 312 312 311 311 312 312 312 312 312 312 311 310 310 310 309 307 306 306 307 307 306 305 303 301 300 299 299 298 297 296 294 292 291 291 291 291 291 291 291
314 316 316 316 316 316 316 315 314 315 315 314 315 316 315 316 316 316 315 314 315 316 316 315 315 316 315 317 318 318 317 316 314 313 313 312 312 313 313 313 314 313 313 313 312 312 312 312 312 311 311 311 311 311 311 311 311 310 310 309 309 309 307 304 303 304 306 306 304 303 302 300 298 298 297 297 295 294 292 291 291 290 290 290 290 290
312 313 314 315 315 316 316 315 314 315 316 314 314 315 315 316 318 317 316 315 315 315 315 315 314 314 314 315 316 315 315 315 314 312 312 312 312 312 313 313 314 313 313 313 312 312 312 312 312 312 311 311 311 311 311 311 311 310 309 309 309 308 307 304 303 302 303 303 303 302 301 299 298 297 297 296 295 293 292 291 291 290 290 290 290 290
311 312 312 312 312 313 313 313 313 313 313 312 314 315 315 315 317 317 316 315 315 315 315 315 315 315 314 314 314 314 314 314 313 313 312 312 312 313 312 313 314 313 313 313 312 312 312 312 312 311 311 311 311 311 311 310 310 309 309 309 309 308 306 305 303 302 302 302 301 301 300 299 298 297 296 295 293 292 291 291 290 290 290 290 290 290
311 312 312 312 312 311 311 311 311 312 311 311 313 313 313 314 315 316 316 315 314 314 314 314 315 315 315 314 313 313 313 313 313 313 313 312 312 312 312 312 313 313 313 313 312 312 312 312 312 311 311 311 311 311 310 310 309 309 309 308 308 308 307 305 304 302 302 301 300 300 299 298 296 295 294 293 292 291 291 290 290 289 289 289 290 289
312 312 312 313 312 312 311 310 311 311 311 311 311 311 311 312 313 315 314 314 314 314 313 313 314 315 314 313 313 313 313 313 313 312 312 312 312 312 311 311 311 312 312 312 312 312 312 312 312 311 311 311 311 311 310 310 310 309 308 308 308 308 307 305 304 302 301 300 300 299 297 295 294 293 292 291 290 290 290 290 290 289 289 289 289 289
312 312 312 312 311 311 311 311 310 311 311 311 311 311 311 311 312 312 312 313 313 313 313 313 313 313 313 312 312 312 312 312 312 312 312 311 311 311 311 311 311 312 312 312 312 312 312 312 311 311 311 311 311 311 311 310 310 309 309 308 308 307 306 305 303 302 301 300 299 297 295 293 292 291 290 289 289 290 290 290 289 289 289 289 289 288
312 313 313 311 310 310 310 310 310 310 311 311 311 311 311 311 311 311 311 312 312 312 312 313 313 313 312 312 312 312 312 312 312 312 311 311 311 311 311 310 311 312 312 312 312 312 311 311 311 311 311 311 311 311 311 311 310 310 309 308 308 307 305 304 303 301 300 299 297 296 294 293 292 290 289 288 289 289 289 289 289 289 289 289 288 288
312 314 313 311 311 312 311 310 310 310 310 311 311 311 311 310 311 311 311 311 311 312 312 313 313 313 312 312 312 312 312 312 312 312 311 310 311 311 310 311 311 312 313 312 312 312 312 312 312 312 311 311 311 311 311 310 310 309 309 308 307 306 304 303 302 300 299 298 296 295 294 293 291 290 289 288 289 289 289 289 289 289 289 288 288 288
311 312 313 313 313 313 312 312 311 311 312 312 311 311 311 311 310 310 310 310 311 311 312 312 313 312 312 312 312 312 312 312 312 311 310 310 311 311 311 311 312 312 313 312 312 312 312 312 312 312 312 312 312 312 311 311 310 310 309 308 307 305 304 302 301 300 298 297 296 295 293 292 290 289 288 288 289 289 289 289 288 288 288 288 288 287
311 311 312 313 314 314 313 313 312 312 313 314 313 311 310 310 311 310 310 310 310 310 311 311 311 311 312 312 312 312 312 312 312 311 311 311 312 312 312 312 312 312 312 313 312 312 312 312 312 312 313 313 312 312 311 310 310 309 308 307 306 305 304 302 301 300 298 296 295 293 292 291 290 289 288 288 288 288 288 288 288 288 288 287 287 287
311 311 311 312 313 314 314 314 314 314 314 314 313 311 310 310 310 311 311 310 310 311 311 311 311 311 311 311 312 312 312 312 312 312 312 312 312 312 312 312 312 312 313 313 312 312 312 313 313 312 312 312 312 311 311 310 309 309 308 307 306 305 304 303 301 299 297 295 294 292 291 290 289 288 288 288 288 288 288 288 288 287 287 287 287 287
312 312 312 312 313 313 314 314 315 316 315 313 312 311 310 311 311 311 311 311 310 311 311 311 311 311 311 312 312 312 312 312 312 311 312 312 312 312 312 312 312 312 313 313 312 312 312 313 313 312 312 312 311 311 310 310 309 308 308 307 306 305 304 302 300 298 296 295 293 292 290 289 288 288 288 288 288 288 287 287 287 287 287 287 287 286
313 313 313 313 313 314 314 314 314 315 315 314 313 312 311 311 311 312 312 312 311 310 311 311 311 311 311 312 311 311 311 311 311 311 311 312 312 312 312 312 312 312 313 313 313 312 313 313 313 312 312 311 311 310 310 309 309 308 308 307 305 304 303 301 299 298 296 295 293 292 291 290 289 289 288 288 288 288 287 287 287 287 287 287 286 286
314 313 314 314 314 314 315 314 314 315 315 314 314 313 311 311 311 312 312 312 312 312 311 311 311 311 311 312 311 310 310 311 312 311 311 312 312 312 312 312 312 312 313 312 312 313 313 313 312 312 311 311 310 310 309 308 308 308 307 306 305 303 302 301 299 298 297 296 294 293 292 291 290 289 288 288 288 288 287 287 287 287 287 287 287 287
313 313 313 314 314 314 315 315 316 316 315 315 315 313 312 312 311 312 313 313 313 313 312 311 311 311 311 312 311 311 312 312 312 311 311 312 312 312 312 312 312 312 312 312 312 313 312 312 311 311 311 310 310 309 308 308 308 308 307 306 305 303 302 301 301 300 299 297 295 293 292 291 290 289 288 288 288 287 287 287 287 287 287 287 287 287
313 313 313 314 314 314 314 315 315 314 316 318 317 314 312 311 311 313 314 315 315 313 311 311 312 312 312 311 310 312 313 312 312 312 311 312 312 312 312 311 311 311 312 312 312 312 312 312 311 311 311 310 310 309 308 307 307 307 307 306 305 304 303 303 302 301 299 296 294 293 291 290 289 288 288 288 287 287 287 287 287 287 287 287 287 287
313 313 313 314 314 314 314 315 315 314 315 317 316 314 311 311 313 314 314 314 314 312 310 310 310 310 310 310 309 310 311 310 310 311 311 311 311 311 311 310 311 311 311 311 311 311 311 311 311 311 311 310 309 308 307 307 306 306 306 305 305 305 305 303 301 299 298 295 293 292 290 289 288 288 287 287 287 287 287 287 287 287 287 287 288 288
311 312 313 313 314 314 314 313 314 315 313 311 311 312 312 313 314 313 311 310 309 307 307 307 307 306 306 306 306 307 307 308 308 308 308 309 309 309 309 309 309 309 309 309 309 309 309 309 309 309 309 309 309 308 307 306 306 306 305 305 306 306 304 302 300 299 298 295 292 291 290 288 287 287 287 287 287 287 287 287 287 287 287 287 288 288
305 307 309 311 313 313 313 314 315 314 309 305 306 310 311 309 309 308 307 307 307 306 305 304 304 304 304 304 304 305 305 306 306 306 306 306 307 307 307 307 307 307 307 307 307 307 307 308 308 308 308 308 308 307 307 306 305 305 305 306 306 305 303 301 300 299 297 295 292 290 289 288 287 286 286 286 286 286 287 287 287 287 287 288 288 287
302 303 304 305 306 306 308 310 311 309 305 302 302 304 302 300 302 305 305 305 305 304 303 303 303 302 302 303 304 304 304 305 305 304 305 305 306 306 306 306 306 306 306 306 306 306 306 306 306 306 307 307 307 306 306 305 305 304 305 305 305 303 302 301 300 298 296 293 291 290 288 287 286 285 285 286 286 286 286 287 287 287 287 288 287 287
302 301 300 301 302 301 301 303 304 303 302 300 299 299 297 296 299 304 304 303 303 302 302 302 301 301 302 302 303 302 302 302 302 303 303 304 305 305 306 306 306 306 306 306 306 306 305 305 305 305 305 305 305 305 305 304 304 304 304 303 302 301 301 300 299 297 295 292 291 289 288 286 285 285 285 286 286 286 286 287 287 287 287 287 287 287
300 299 300 300 300 298 298 300 302 300 297 297 296 296 295 296 300 302 301 300 300 300 299 300 300 300 300 301 301 301 300 300 301 301 302 303 304 305 305 305 305 305 305 305 304 305 304 304 304 304 304 304 304 304 303 303 303 303 303 301 300 299 299 299 298 296 294 291 290 288 287 286 285 284 285 285 286 286 286 287 287 288 288 288 287 286
296 297 298 298 297 295 295 297 297 296 295 295 295 295 297 299 299 298 297 297 297 297 297 298 298 298 298 299 299 298 298 299 300 301 302 303 303 304 303 303 303 303 303 302 302 302 302 302 302 302 302 302 302 302 302 302 302 302 302 300 298 298 297 297 296 295 293 291 289 287 286 285 284 284 285 285 285 286 286 287 287 288 288 288 287 285
294 294 294 294 294 294 294 294 295 295 295 295 295 297 299 298 296 295 295 296 296 296 296 296 297 297 297 297 297 298 298 299 300 301 302 302 302 301 301 301 301 300 300 300 300 301 301 301 301 301 301 301 301 301 301 301 301 301 301 300 298 297 295 295 294 293 292 290 288 287 286 285 284 284 285 285 285 286 286 287 287 287 287 287 286 284
293 293 293 293 294 294 294 295 295 294 294 294 295 296 296 295 294 294 294 294 293 294 294 295 296 297 297 297 297 298 298 298 299 299 300 300 299 299 299 299 299 299 299 300 300 300 300 300 300 300 300 300 300 300 300 300 301 300 300 300 298 296 295 294 293 291 290 289 287 286 285 284 284 284 285 285 285 286 286 287 288 288 287 285 283 282
293 292 293 293 294 293 294 294 293 292 292 293 293 293 293 293 292 291 290 290 290 291 293 294 294 294 294 295 296 296 297 298 298 298 298 298 298 299 299 299 299 299 299 300 300 300 300 300 300 299 299 299 299 299 299 299 300 300 300 299 298 296 295 293 291 289 288 287 286 285 284 283 283 284 285 285 285 286 286 286 285 285 285 283 281 280
292 292 292 292 292 292 292 291 290 291 291 292 292 290 289 290 289 288 288 288 289 290 291 291 290 290 291 292 293 294 295 295 295 295 296 296 296 297 297 297 298 298 298 298 298 298 298 298 298 298 298 297 297 298 298 298 298 298 298 298 297 296 294 292 291 289 287 286 285 285 284 283 283 284 284 285 286 287 287 285 283 282 281 281 280 279
Wind_Speed
11 5 4 8 11 10 10 12 14 14 13 13 11 9 8 8 10 13 12 6 10 7 9 14 13 13 15 13 12 20 25 23 22 22 25 29 31 34 36 35 32 32 32 29 29 29 27 30 34 36 36 36 36 36 37 38 38 38 38 38 37 37 36 35 35 35 35 35 35 33 31 31 31 31 31 29 29 28 27 25 24 24 23 20 17 14
7 6 9 15 15 11 10 12 12 11 12 11 9 8 8 8 10 13 11 5 7 5 7 10 10 12 15 13 13 17 17 17 20 21 25 29 32 35 37 34 28 25 25 24 25 25 23 27 31 34 36 37 37 37 38 38 38 38 38 37 38 38 37 36 35 35 35 35 35 33 32 32 32 32 31 30 30 29 28 26 25 25 23 20 17 14
5 9 13 16 13 11 12 11 9 10 10 9 7 6 7 8 9 11 9 2 3 3 5 8 9 11 14 14 14 16 15 20 29 30 30 32 32 35 36 31 23 20 22 23 25 25 23 26 29 33 36 37 37 37 38 38 37 37 37 37 37 37 37 36 36 36 35 35 34 32 31 31 32 32 32 31 31 30 29 27 27 25 23 20 17 15
7 9 14 17 15 13 15 11 8 8 8 8 7 5 7 9 7 7 5 3 4 5 6 7 9 9 12 13 14 21 26 28 34 36 35 36 36 37 38 33 24 22 25 25 25 25 23 25 29 32 35 36 36 37 38 38 38 38 38 37 36 36 36 37 36 36 35 34 34 32 32 32 33 33 33 33 33 32 30 28 28 26 24 21 19 17
13 8 9 12 12 13 13 10 7 6 7 8 8 8 9 10 10 10 7 3 3 5 4 5 8 8 9 12 12 16 23 23 25 28 28 35 38 38 39 33 24 24 27 26 25 25 24 25 29 31 33 35 36 38 39 39 38 38 37 35 35 34 36 37 37 36 36 37 36 35 35 36 36 36 35 35 35 33 31 30 29 28 25 23 21 19
14 10 10 8 6 8 8 7 7 6 8 8 7 10 14 13 13 12 9 6 4 4 2 3 7 8 6 10 11 7 9 11 13 16 20 29 34 36 37 30 23 24 24 23 24 24 23 24 29 30 32 34 36 37 37 37 37 36 35 34 34 34 35 36 37 37 38 39 39 39 40 40 39 39 38 36 35 34 32 32 30 29 27 24 22 21
6 9 11 9 8 8 7 7 7 7 8 9 5 5 8 8 8 8 6 3 2 5 3 4 2 11 7 7 9 7 6 8 9 10 14 22 30 34 34 29 24 24 24 23 24 24 23 24 29 30 31 33 33 34 35 36 36 36 35 34 34 35 35 36 37 38 39 40 40 40 41 40 39 39 38 36 34 33 32 31 31 30 28 26 24 22
4 7 6 6 9 7 7 8 7 8 7 6 2 1 2 2 3 3 3 3 4 4 5 5 5 10 13 5 8 10 9 9 9 9 11 18 27 34 35 30 24 23 26 27 26 27 25 25 29 28 28 30 30 31 33 34 35 35 34 34 33 34 34 35 37 38 39 39 39 40 40 40 39 38 37 36 35 34 33 33 33 31 29 27 25 23
2 7 8 8 8 6 8 7 5 8 7 5 3 2 2 2 1 1 2 5 3 4 5 5 7 7 14 6 6 10 10 10 12 12 11 15 25 32 34 32 24 21 25 27 28 29 27 26 29 27 25 27 28 29 31 31 33 33 33 33 33 33 33 34 35 36 37 37 38 39 40 40 40 39 38 37 37 37 36 35 34 32 31 29 26 24
0 4 5 5 6 7 7 3 2 5 6 4 3 1 2 2 2 2 4 4 2 5 7 6 7 5 13 8 4 7 8 10 11 12 12 15 24 29 30 31 27 23 24 26 28 28 25 26 29 28 25 25 27 28 29 30 32 33 33 32 33 32 31 32 32 33 34 35 37 38 40 41 41 41 41 40 40 39 38 36 35 34 32 30 27 25
4 3 1 3 6 5 4 4 1 2 3 2 2 1 2 4 3 1 4 1 1 9 8 9 12 9 10 5 5 6 7 9 9 9 10 13 20 25 26 27 25 23 23 24 25 25 24 26 28 28 26 26 27 28 30 32 32 32 32 32 32 31 30 30 30 30 32 34 36 38 40 42 43 44 44 44 43 42 40 37 36 35 33 31 29 26
6 3 1 4 6 5 6 3 2 1 2 3 4 1 3 4 1 2 2 3 3 11 5 10 15 15 11 5 3 6 7 10 11 8 10 11 15 24 26 25 23 21 21 21 21 23 25 27 29 29 28 28 28 30 32 32 32 33 33 33 34 32 30 29 29 28 30 33 35 38 40 42 44 45 46 46 44 43 41 38 36 36 34 32 30 27
6 9 8 3 4 9 6 2 1 2 1 4 5 4 0 3 2 1 3 3 5 11 6 9 12 11 13 8 5 8 7 10 10 10 13 11 12 22 22 19 22 23 22 21 20 22 25 29 30 31 30 31 31 31 32 32 33 34 34 34 34 32 29 28 29 29 29 32 35 38 40 43 45 46 46 46 45 43 41 38 37 37 36 34 30 27
4 6 8 4 3 11 11 6 4 2 4 8 6 6 6 4 4 4 4 4 7 10 8 8 8 5 8 6 10 15 14 15 13 16 20 14 15 23 17 14 20 23 23 22 21 22 25 28 30 32 32 32 32 32 32 33 33 34 35 35 34 32 29 28 30 30 30 32 34 37 40 43 45 46 47 46 45 44 41 40 39 38 37 34 30 27
4 7 7 9 4 11 15 13 12 5 5 10 7 6 7 5 4 5 5 7 8 7 7 4 5 4 4 4 11 14 15 18 18 24 25 19 21 23 14 14 19 20 21 20 19 22 25 26 28 31 32 33 33 33 34 34 35 35 35 35 34 32 30 29 30 32 32 32 34 37 40 43 46 47 47 47 46 45 43 41 40 39 37 34 30 28
8 9 9 12 5 12 17 17 14 5 1 7 5 5 7 7 6 6 7 9 6 5 7 4 4 7 7 8 11 10 11 13 15 21 20 19 24 20 14 17 19 19 20 19 18 21 25 26 27 29 31 32 32 34 35 35 35 35 34 33 33 32 30 30 31 33 33 33 34 36 39 42 45 47 48 48 47 46 44 42 41 39 37 34 31 28
7 7 6 9 2 8 13 11 11 9 3 3 5 6 7 4 6 6 8 7 3 5 9 7 6 8 8 11 12 14 16 12 10 13 12 17 25 19 16 21 21 20 21 19 19 21 25 27 28 29 30 31 33 35 36 36 34 33 32 32 33 34 34 33 32 33 34 35 35 35 37 41 44 47 48 49 49 48 46 43 41 40 37 35 32 29
7 6 4 9 5 6 5 2 5 8 3 5 4 7 2 2 1 3 3 3 3 7 8 8 11 10 9 10 5 5 12 12 10 10 10 16 19 14 17 23 22 23 23 20 19 21 25 28 29 30 31 31 33 34 36 35 34 32 31 32 34 35 36 34 33 34 34 35 35 34 35 37 41 45 47 48 49 48 47 45 43 41 39 36 33 30
7 6 5 4 2 1 2 1 5 5 2 5 3 3 2 1 3 3 3 3 5 7 6 9 13 12 11 10 5 2 8 11 10 9 9 12 11 9 17 21 19 20 20 20 21 22 26 29 30 31 31 32 33 34 35 35 34 34 33 34 36 37 36 35 36 36 36 36 36 35 34 36 39 42 45 47 48 49 48 47 45 43 41 38 35 32
5 5 5 1 2 1 2 2 5 4 3 2 2 4 0 2 4 4 3 4 5 7 7 8 10 12 11 7 7 10 12 10 8 8 9 9 8 11 16 16 15 17 18 21 22 22 25 29 30 31 30 31 33 34 35 35 35 36 36 36 37 38 39 39 39 39 38 38 38 37 36 36 38 41 44 46 48 49 49 48 46 44 42 39 36 33
3 4 7 2 4 1 2 4 9 9 7 5 2 4 2 2 1 1 2 3 5 7 6 6 8 13 9 3 3 6 9 11 9 8 8 7 6 10 11 11 13 16 18 21 21 21 23 27 31 31 31 32 34 34 35 35 36 36 37 39 40 41 41 41 41 41 40 40 40 40 39 38 39 40 43 45 47 49 49 48 46 45 42 40 37 34
3 4 7 2 1 5 7 8 12 15 12 9 8 9 8 7 4 3 7 6 5 5 6 6 8 13 9 2 5 3 7 9 9 8 5 4 5 8 8 9 13 15 18 19 19 20 21 25 29 32 32 33 34 35 36 36 36 36 39 41 42 43 43 42 42 42 42 42 42 43 42 42 42 42 43 45 47 49 49 48 47 45 43 40 37 34
5 2 5 6 6 8 10 8 8 11 10 5 5 8 8 8 8 8 10 7 5 4 5 6 9 14 11 2 7 6 2 2 2 6 7 7 6 7 10 11 13 16 18 18 19 21 22 22 24 27 29 31 32 35 37 37 38 39 40 40 41 44 46 44 44 43 43 43 44 45 45 45 45 44 44 45 46 48 49 48 47 45 43 40 37 34
3 2 4 8 6 5 7 3 2 2 2 3 4 6 7 7 8 9 7 5 5 5 6 8 10 12 12 5 6 8 5 7 10 5 6 7 5 7 10 13 16 18 20 21 23 26 25 21 21 24 27 28 29 32 34 37 39 40 39 38 39 43 46 47 46 44 44 44 44 45 46 47 47 46 46 46 47 48 49 48 47 45 43 40 37 33
5 1 4 8 6 5 6 6 4 3 2 2 5 6 7 7 7 7 5 4 6 7 10 12 9 9 10 5 5 9 10 11 12 8 3 3 7 11 14 16 19 22 23 24 26 27 25 22 23 26 28 27 27 29 33 37 39 39 37 36 37 40 44 47 47 46 44 43 44 45 47 48 49 48 48 47 47 49 49 48 47 45 43 40 36 33
3 3 3 5 7 8 7 8 7 4 2 2 4 6 7 7 8 7 6 6 8 10 12 13 10 10 12 13 12 14 13 11 12 13 14 15 19 21 19 18 21 25 25 23 25 26 25 24 27 30 28 27 28 30 34 37 39 40 37 35 35 38 42 45 46 46 45 43 43 44 46 49 50 50 49 48 48 49 49 48 47 45 42 39 36 32
2 1 5 8 9 8 8 9 9 9 8 7 6 8 8 8 9 7 5 8 9 10 12 12 12 14 15 18 22 21 18 16 15 16 17 19 23 23 21 19 21 24 25 22 22 24 25 27 30 29 27 28 30 32 34 37 39 39 36 35 35 36 39 42 45 45 45 44 44 44 46 49 50 50 50 49 49 49 49 48 47 45 42 38 35 32
2 4 12 15 16 15 15 16 16 15 16 15 14 14 12 10 10 9 10 12 12 12 13 12 14 18 17 18 22 23 21 17 14 13 16 23 27 27 26 23 21 22 23 23 24 25 27 30 30 29 29 31 32 33 33 35 38 38 37 37 36 36 38 40 42 44 44 44 44 45 46 48 49 49 49 49 49 49 48 48 46 44 41 37 34 31
3 7 13 15 18 19 18 19 20 19 19 19 17 18 18 17 14 13 16 19 17 15 14 14 19 23 20 18 21 22 20 16 17 23 31 36 35 33 33 27 19 19 21 24 27 27 27 29 30 30 31 32 33 34 34 36 38 39 40 39 38 38 38 39 41 42 43 44 44 45 45 47 48 48 48 49 49 49 48 48 46 43 40 36 33 30
5 6 11 14 15 16 18 20 22 23 22 22 21 21 20 21 21 20 21 21 20 19 18 21 25 25 21 20 22 24 24 24 27 35 40 39 36 37 39 31 20 19 22 23 27 28 27 28 30 31 33 34 35 35 36 38 39 40 42 41 40 39 38 39 40 42 43 44 43 43 44 46 47 48 48 49 49 49 49 48 45 42 39 35 32 30
9 8 11 13 11 14 20 22 23 24 23 24 26 23 21 23 26 27 23 18 18 21 23 24 23 20 19 21 21 23 27 28 29 32 34 37 37 37 38 32 22 22 26 26 27 27 27 28 29 32 35 36 36 37 38 40 39 40 42 41 40 40 39 39 40 41 42 42 41 42 44 45 47 48 48 48 48 49 49 47 44 41 38 35 32 30
9 8 8 9 8 11 18 23 25 25 24 24 25 23 24 27 27 23 19 18 20 22 23 23 18 15 18 19 16 17 22 25 25 25 27 33 37 36 34 31 24 24 29 30 28 27 29 30 31 33 36 36 36 37 38 39 39 40 41 41 40 39 39 39 39 40 40 40 40 42 44 46 48 49 49 49 49 50 49 47 44 41 38 35 32 30
8 8 7 8 8 10 15 20 22 19 17 16 17 23 30 32 27 21 19 23 25 21 18 17 16 18 19 16 15 18 22 22 23 25 26 29 35 37 35 30 24 24 28 30 31 31 31 32 33 34 36 35 34 35 36 36 37 38 38 38 38 38 38 38 38 38 38 39 40 42 44 47 48 49 49 49 50 50 48 46 43 40 37 35 32 30
9 10 9 7 7 9 13 15 14 11 11 10 14 24 33 32 28 25 25 29 30 24 19 19 20 22 20 16 18 21 22 25 31 34 30 28 32 35 33 29 27 28 32 34 35 34 34 34 33 33 34 34 32 31 31 32 34 34 35 36 36 36 37 37 37 38 38 38 40 42 44 46 47 48 49 49 50 50 47 45 42 39 37 34 31 29
9 10 9 7 6 8 9 10 10 11 10 10 15 23 27 27 29 30 30 31 30 27 25 25 24 22 20 20 22 23 28 38 45 41 31 28 34 35 33 35 35 33 35 37 36 37 38 38 36 34 34 32 29 26 27 29 30 32 33 34 35 35 36 37 37 37 37 38 40 41 43 45 46 48 49 49 49 48 46 44 41 38 36 33 30 27
13 10 7 6 7 6 6 8 11 10 5 5 11 15 17 19 23 25 26 28 28 27 26 24 23 22 22 23 26 33 40 43 41 37 33 36 41 41 38 39 39 36 38 40 40 41 43 42 38 34 32 31 27 25 25 25 26 29 31 33 34 35 36 36 36 37 37 38 40 41 43 45 47 48 48 48 48 48 46 44 41 38 35 31 28 25
17 13 8 7 7 8 10 12 13 14 9 5 8 11 15 17 18 18 20 22 22 22 22 21 21 23 25 25 27 35 39 30 20 22 34 44 48 47 44 41 37 37 40 42 42 42 42 40 36 32 30 28 26 24 24 23 24 27 30 32 34 36 36 36 37 37 37 39 40 42 44 46 48 48 48 49 49 49 47 45 42 38 34 31 27 24
20 17 13 11 8 10 14 12 9 13 13 10 12 15 18 21 22 19 19 17 13 13 17 21 23 26 26 26 26 26 24 17 9 13 32 49 51 48 46 42 37 35 36 37 36 34 34 33 31 28 28 27 25 24 23 23 23 25 28 31 34 36 36 37 37 37 38 39 41 42 44 46 48 48 48 50 50 50 49 46 42 38 34 30 26 24
22 18 16 13 9 10 15 12 9 11 9 8 14 16 18 21 19 13 15 14 8 12 18 21 22 24 22 20 20 16 12 10 7 11 31 48 48 42 40 36 31 28 28 29 29 29 30 30 28 26 27 28 28 26 24 23 23 24 28 30 32 35 36 36 35 35 36 38 40 42 44 46 47 47 48 50 51 51 48 45 41 37 32 29 26 24
20 15 14 15 12 13 15 12 9 9 5 7 11 12 17 22 14 9 14 11 7 15 22 21 21 22 18 17 15 10 9 11 12 19 35 45 42 37 34 30 29 29 29 31 32 32 33 31 28 26 26 27 28 27 25 24 24 25 27 29 31 33 34 34 33 32 34 37 39 41 43 45 47 47 49 51 52 50 47 44 40 36 32 30 27 24
12 10 12 15 14 14 16 12 8 7 5 7 11 12 15 16 10 10 14 9 3 5 12 12 13 15 14 13 10 6 9 15 18 25 32 32 28 27 27 27 29 30 31 33 33 30 28 27 27 27 26 25 26 27 26 25 24 26 27 28 31 32 32 32 31 31 33 36 39 41 43 45 46 47 49 51 52 50 47 43 39 36 32 30 27 24
5 5 6 10 12 13 14 12 11 8 2 6 9 12 10 6 4 7 9 16 17 14 22 24 19 21 25 21 18 18 21 27 28 26 25 23 20 19 20 20 21 21 22 23 23 21 21 22 24 26 26 25 25 26 27 26 26 27 27 29 32 33 32 31 31 31 33 36 40 41 42 44 46 48 50 52 52 51 48 43 39 35 32 29 26 24
4 6 6 5 7 8 9 9 8 5 7 17 14 7 0 3 6 11 12 17 19 20 24 25 23 25 27 25 25 28 31 33 34 35 35 33 29 26 25 24 24 25 26 26 25 23 22 22 23 25 26 27 27 27 27 28 29 29 30 32 34 34 33 32 32 32 34 37 40 41 43 44 47 51 53 53 53 50 47 43 39 35 32 28 26 25
5 4 4 4 4 4 4 4 2 1 6 13 10 3 5 13 20 18 12 11 16 21 21 20 22 25 26 24 26 29 31 32 35 37 38 36 34 33 32 31 30 29 29 29 27 26 24 23 23 25 26 28 30 30 29 29 30 32 35 35 35 35 35 34 33 34 36 38 41 42 44 46 50 53 55 55 53 49 45 42 38 34 31 28 26 25
4 3 3 5 6 3 4 9 10 8 10 16 15 11 17 28 29 19 13 13 16 20 20 19 20 24 25 23 24 27 30 33 37 38 38 37 35 34 32 31 30 29 28 29 28 27 26 26 24 24 26 28 30 31 31 31 31 34 37 38 36 36 36 35 35 36 38 40 42 43 45 48 52 55 56 55 52 49 45 41 36 33 30 28 26 25
7 8 6 4 6 7 7 11 13 13 18 30 36 34 32 30 22 15 17 19 20 23 24 21 21 25 24 21 22 26 30 33 36 38 39 38 37 36 34 33 31 29 28 29 30 29 29 29 27 27 28 28 30 31 32 32 33 34 37 38 37 37 37 37 37 38 39 42 43 44 47 51 55 57 56 53 50 46 43 39 35 32 30 28 26 25
6 9 9 6 8 11 9 10 12 16 24 34 40 38 29 20 18 23 28 27 27 30 30 27 27 29 28 27 26 28 31 33 34 35 36 35 36 37 38 37 36 34 33 33 33 33 32 31 31 32 32 31 31 32 32 33 33 34 36 37 38 37 37 38 39 39 41 43 44 46 49 54 58 60 57 54 50 45 40 37 34 32 30 28 27 26
9 12 11 9 10 11 12 14 18 21 25 27 27 23 21 23 28 32 31 28 29 31 31 31 31 31 31 31 30 29 31 33 32 31 32 33 35 37 40 42 42 41 39 37 35 35 34 33 34 34 34 34 34 32 33 34 34 34 35 37 38 38 38 39 41 42 43 44 46 48 52 57 61 61 58 54 50 45 41 37 33 31 29 27 26 25
14 14 10 9 11 12 12 11 13 16 18 21 21 20 23 29 33 32 31 31 32 31 31 31 30 29 29 30 30 29 30 32 32 31 32 34 37 39 41 42 41 41 40 38 35 34 34 34 34 34 34 36 36 34 35 36 36 35 36 37 39 39 39 41 43 44 45 46 48 51 55 59 61 61 58 53 47 42 38 35 32 30 28 26 24 22
11 11 10 9 9 10 10 10 13 13 13 18 22 23 25 28 32 35 37 37 34 31 30 30 31 32 31 30 30 31 31 32 33 33 33 35 36 37 38 39 39 39 39 37 35 35 35 35 35 35 37 39 39 39 39 39 38 37 37 38 40 40 41 43 45 46 48 49 51 54 58 61 61 59 56 52 48 43 37 32 30 28 27 25 24 22
10 9 10 9 9 12 14 16 17 12 9 17 26 30 29 30 34 37 37 36 33 31 31 31 34 37 37 35 32 30 31 34 36 36 37 39 40 40 40 40 41 41 42 40 38 39 40 40 39 39 41 42 41 41 41 40 38 38 38 39 41 41 42 44 47 49 51 52 55 58 61 63 62 58 55 51 47 43 39 35 32 29 26 25 24 22
Wind_Direction
180 184 204 222 235 223 214 217 223 231 238 252 263 269 269 270 271 270 279 236 182 192 222 225 234 246 255 258 250 251 253 256 256 250 247 249 253 256 258 259 257 253 250 247 241 233 230 235 235 233 233 229 225 222 222 223 223 227 229 229 231 231 231 231 230 230 230 231 231 231 231 230 230 231 231 231 231 231 231 230 227 229 230 229 229 234
186 207 219 227 239 239 236 237 239 242 247 255 260 270 276 266 267 274 280 247 181 199 235 241 252 257 260 263 258 254 252 253 253 252 253 254 257 260 261 261 258 249 240 233 228 222 221 229 229 229 229 226 222 220 221 222 223 226 229 231 233 232 233 234 234 234 234 234 235 235 235 233 231 232 232 232 232 231 231 229 226 227 228 228 230 236
214 229 230 236 248 253 254 256 256 261 263 267 270 278 275 265 274 278 270 208 135 211 248 259 262 262 263 263 262 258 250 250 250 249 253 256 258 259 259 259 250 232 219 214 214 214 220 228 226 224 226 226 224 222 222 223 223 226 228 230 232 233 235 235 235 235 234 235 235 236 236 233 232 232 232 231 231 232 231 227 225 226 227 229 233 239
228 227 228 239 249 251 254 250 242 260 264 252 252 262 262 258 268 275 258 181 164 206 240 267 266 264 268 265 261 256 252 251 252 252 254 256 257 256 258 258 246 223 209 204 206 212 220 226 222 221 223 224 223 222 222 223 223 225 228 230 232 233 235 235 235 234 233 233 232 231 231 230 230 231 230 229 230 232 230 227 226 227 228 230 235 241
240 223 207 228 238 238 244 242 226 241 257 242 223 229 249 255 251 257 273 271 226 232 249 309 291 262 249 252 254 252 250 250 250 251 252 254 256 258 258 255 243 226 213 205 208 214 220 224 221 220 222 223 222 222 222 223 223 226 228 230 232 233 233 233 233 232 230 229 227 226 224 224 225 226 228 229 230 231 229 228 228 228 230 232 236 241
247 232 215 223 225 220 228 238 213 204 257 260 217 220 242 254 258 263 293 326 322 279 246 34 309 273 211 228 256 258 238 239 239 239 242 249 254 257 258 253 237 226 219 217 222 222 224 227 221 218 220 221 222 223 223 223 224 226 228 229 229 230 230 231 231 231 230 229 228 228 227 227 227 227 229 232 234 233 231 230 229 229 231 233 237 242
240 216 214 219 221 224 231 248 220 198 256 272 227 233 253 261 273 275 300 324 256 261 238 110 331 286 259 223 253 263 231 229 229 227 234 242 247 252 258 259 241 223 218 223 227 223 226 227 219 218 220 220 221 221 220 221 222 224 226 227 228 229 229 229 230 231 231 231 231 233 234 235 235 234 234 236 235 234 232 231 230 231 232 234 238 242
184 174 177 202 218 228 232 245 228 198 237 265 227 264 281 274 283 272 285 252 233 285 271 159 147 276 280 237 218 232 229 235 233 229 233 234 241 249 259 264 247 226 224 224 222 221 225 227 222 220 220 218 218 217 217 219 220 221 223 225 226 228 229 230 230 232 234 234 234 235 235 236 237 237 237 236 235 232 231 231 232 232 233 234 237 242
138 175 191 198 203 224 225 231 211 187 217 241 210 201 146 158 247 218 250 251 263 316 275 189 151 256 281 268 205 216 218 231 234 232 235 231 237 245 255 260 250 236 236 231 226 226 228 230 225 223 222 218 215 213 215 217 217 219 221 222 224 226 228 229 231 234 236 237 238 238 237 235 235 235 235 234 234 233 232 233 234 233 233 234 236 241
238 176 206 190 186 221 215 195 196 194 212 215 200 174 109 187 235 205 236 249 293 279 245 198 161 230 277 273 194 199 210 224 233 234 236 234 238 241 246 252 250 245 241 231 228 230 232 233 227 223 222 217 214 212 213 215 215 216 217 219 221 222 225 228 231 234 236 237 238 237 237 236 234 232 232 232 232 233 234 234 234 233 232 234 236 239
238 118 96 202 199 202 148 127 214 199 184 137 140 275 308 258 240 223 242 187 285 267 237 197 188 204 270 284 155 186 201 205 219 230 238 239 242 242 240 244 244 241 237 227 223 227 230 229 224 223 222 216 212 210 210 212 212 213 215 216 218 219 222 225 228 232 234 235 237 237 237 236 234 233 232 232 232 233 234 233 233 232 232 233 235 238
245 171 163 219 196 147 106 141 213 134 162 120 123 161 320 289 291 4 291 121 241 264 221 188 198 200 235 263 170 212 197 195 208 213 229 234 238 242 241 239 233 230 234 228 220 220 219 218 218 222 220 213 210 209 209 209 209 210 213 214 216 216 218 223 225 229 232 233 235 236 236 236 235 235 235 235 235 235 235 233 232 230 230 232 234 238
245 227 211 209 198 176 157 176 247 352 237 154 141 147 178 281 284 303 249 157 230 256 239 209 204 206 234 241 233 250 228 208 209 201 217 223 232 242 241 231 221 215 223 227 222 218 215 215 215 213 210 207 208 208 206 208 209 210 212 213 214 214 216 221 223 226 230 232 235 235 235 236 235 236 237 237 237 237 236 234 232 230 230 232 234 238
262 258 197 169 249 197 180 176 206 256 196 178 163 158 172 216 246 243 239 239 242 255 260 228 196 219 258 232 215 233 235 225 212 207 218 222 237 248 241 218 211 208 215 224 225 222 217 215 212 206 204 205 207 206 206 209 210 211 212 213 214 214 216 221 224 226 229 232 235 236 236 236 236 236 236 237 237 237 236 235 234 233 232 233 236 239
237 290 185 171 207 183 183 207 211 180 170 196 181 167 187 191 211 231 233 244 256 277 274 214 168 223 256 217 208 216 228 228 214 211 215 220 239 247 232 207 206 206 213 221 224 224 219 215 210 205 206 207 207 206 207 210 211 212 212 213 213 214 216 221 225 226 229 232 235 236 237 237 237 237 237 237 237 237 236 235 234 233 233 234 235 239
222 266 197 176 174 163 185 217 210 152 146 220 170 169 217 197 190 235 247 243 264 309 277 228 202 239 258 267 246 230 238 230 214 213 207 213 235 234 204 203 209 211 218 219 220 220 217 215 212 210 211 211 209 208 209 210 212 213 214 214 215 216 218 222 226 228 230 232 235 237 238 238 237 237 236 236 236 236 236 235 235 233 232 233 234 237
222 266 182 169 206 182 194 216 199 183 205 203 164 195 220 178 169 219 259 267 280 283 273 264 257 271 295 281 249 231 237 225 213 219 195 208 230 222 202 211 216 220 224 222 221 220 216 216 215 215 215 214 212 211 211 213 214 215 216 218 219 219 221 224 227 230 231 233 235 238 239 239 239 238 237 236 235 235 234 233 233 232 230 231 233 236
224 267 206 176 216 224 211 276 237 223 177 123 185 214 191 45 125 189 246 282 259 255 267 276 274 280 285 278 270 226 229 219 210 211 190 209 225 215 215 224 225 229 229 224 223 221 218 219 219 219 218 217 217 216 216 217 218 220 221 223 224 224 225 228 229 231 232 234 236 238 239 241 241 240 239 237 236 235 233 232 231 230 229 230 232 235
217 249 257 176 183 216 94 322 262 260 181 143 219 243 130 171 225 178 187 218 240 250 261 279 282 275 256 259 299 273 217 211 207 199 200 223 226 214 224 229 229 230 229 224 222 220 220 222 223 222 220 220 222 222 223 223 223 224 226 228 230 230 231 232 232 233 233 234 236 238 240 241 242 242 240 238 236 234 233 232 231 229 228 229 231 234
213 226 255 10 24 46 73 228 210 215 219 162 337 324 54 183 188 176 187 198 222 239 256 275 280 275 258 235 240 234 210 197 195 193 214 232 233 228 230 234 233 229 230 232 231 227 226 227 227 226 225 225 227 227 226 226 227 229 230 231 233 233 233 234 235 235 235 236 236 237 238 240 241 242 240 238 236 235 233 232 231 230 228 229 230 233
208 218 236 330 358 235 197 215 191 189 203 187 218 263 242 206 172 206 237 217 214 226 240 246 255 270 269 192 218 227 184 180 182 190 222 229 230 240 244 254 251 240 240 244 241 239 238 235 231 227 228 229 230 229 228 230 231 233 235 237 237 236 236 236 237 237 237 237 237 237 237 239 240 240 240 238 236 235 234 232 231 229 228 229 230 232
204 217 222 219 283 231 226 220 205 205 207 192 197 209 207 203 196 237 245 231 217 223 230 227 241 260 259 76 24 32 144 172 164 147 185 207 220 247 254 264 261 251 250 252 251 252 250 245 237 230 231 232 232 232 232 232 233 235 238 239 239 239 239 239 239 239 239 238 237 238 237 237 237 238 238 237 236 234 232 231 229 228 228 229 229 231
210 197 236 234 230 240 243 234 223 228 231 231 221 213 213 208 197 217 232 232 229 225 234 242 245 253 256 326 353 348 66 177 159 130 163 187 209 243 251 256 256 251 251 254 258 259 256 249 239 234 236 239 239 238 238 237 238 240 242 243 243 243 242 241 240 239 239 238 238 238 237 236 236 236 236 236 235 233 230 229 228 227 228 229 229 230
265 146 239 256 266 290 283 278 347 324 267 270 261 228 219 219 217 228 236 244 245 219 225 246 245 256 271 275 260 265 263 268 278 268 181 185 214 249 260 263 258 252 252 254 258 260 255 242 232 234 240 243 245 247 248 248 248 247 247 250 253 251 246 242 239 238 238 239 239 238 237 236 235 235 235 235 234 231 229 227 226 226 227 228 229 230
321 293 252 261 267 287 289 276 282 336 8 253 253 246 238 242 249 259 272 273 257 239 240 253 252 260 280 277 229 245 253 255 266 272 251 279 301 297 286 273 262 255 252 255 258 254 245 237 238 244 245 246 253 260 260 256 254 253 252 256 261 259 250 243 239 238 239 239 239 238 238 236 235 235 234 234 233 230 227 225 224 225 226 226 228 230
330 309 311 280 258 254 258 257 257 281 304 258 261 264 259 258 253 255 265 259 254 249 247 254 264 269 281 290 283 276 275 274 277 285 296 307 309 304 292 273 263 256 251 254 256 248 241 243 249 250 247 250 260 265 265 261 257 253 252 257 264 263 255 247 242 239 239 239 239 239 239 237 235 235 234 233 231 228 225 223 223 223 224 225 227 230
94 211 284 272 266 265 261 269 286 295 281 273 274 260 255 261 254 251 257 253 258 264 255 253 268 274 278 282 282 280 280 282 284 290 299 301 298 297 292 278 266 256 250 249 248 245 246 249 250 248 251 260 265 266 266 264 257 253 254 259 265 265 260 252 244 241 241 240 240 240 240 238 236 234 233 231 229 226 223 222 222 222 223 224 226 229
144 233 256 256 258 262 265 272 283 287 276 271 275 274 275 272 256 247 250 250 255 263 259 256 265 268 264 263 270 276 278 279 284 289 293 292 291 293 292 282 265 254 250 245 240 240 246 248 249 252 258 262 263 265 267 265 260 257 259 263 265 265 261 254 247 244 243 242 242 242 241 237 234 231 230 229 226 223 221 220 220 220 221 223 225 229
216 238 239 243 249 250 256 263 266 270 270 266 266 268 272 272 263 255 252 250 248 251 258 257 253 256 260 259 263 270 274 281 289 289 287 288 289 290 285 276 261 260 261 251 245 245 246 249 253 257 259 259 259 262 264 264 262 260 259 260 263 262 259 255 249 246 245 244 244 242 238 233 230 228 227 225 222 220 219 219 218 218 219 221 224 228
208 230 220 229 244 241 241 247 248 253 260 263 261 258 260 266 265 257 252 251 252 254 257 256 253 254 259 259 259 264 272 280 284 283 282 281 281 280 279 275 269 272 273 260 253 251 250 254 260 261 259 257 257 259 260 262 262 261 259 259 259 259 256 252 249 247 245 244 243 239 234 230 228 225 223 221 219 218 218 217 216 216 217 219 222 227
202 213 206 219 242 239 235 239 239 241 246 253 258 259 258 258 256 252 252 256 260 260 256 254 257 258 257 257 259 265 270 272 272 273 273 272 273 274 275 276 275 274 274 266 258 256 259 264 267 266 262 258 257 259 260 260 260 259 258 257 257 256 254 250 248 246 245 244 241 236 232 229 226 223 220 219 217 217 216 215 215 214 215 217 221 226
196 213 207 213 240 236 230 235 238 238 240 244 251 258 257 251 249 248 248 248 248 252 255 256 257 257 256 259 264 265 263 260 260 262 263 266 269 270 271 273 273 271 271 270 269 268 269 274 275 273 268 263 261 261 260 258 256 256 256 256 255 254 251 249 247 246 245 243 240 236 233 229 225 221 219 218 216 216 215 214 213 212 214 216 220 225
191 213 214 210 236 239 227 232 236 234 238 237 232 239 245 246 248 248 247 247 245 244 248 251 248 249 254 260 263 260 258 256 255 255 256 262 266 267 267 270 270 268 271 277 280 277 274 276 278 276 273 271 269 268 264 259 257 258 258 256 255 253 250 249 248 247 245 242 239 236 232 227 223 220 218 217 216 215 213 212 211 211 213 215 219 224
194 210 220 214 235 244 230 233 238 232 233 226 205 219 233 240 244 244 240 240 240 238 238 241 244 248 251 251 252 254 254 254 254 254 252 253 258 262 267 270 270 271 275 279 280 278 278 279 279 277 278 279 277 273 267 262 259 259 257 254 252 252 251 251 249 246 244 241 237 234 229 225 222 219 217 215 214 213 211 210 210 210 212 215 219 223
214 214 222 222 233 243 233 233 241 234 228 220 210 216 228 235 238 242 243 241 241 243 244 245 247 249 249 248 248 249 251 253 256 258 257 254 257 262 268 271 271 271 272 275 277 279 280 282 282 282 284 285 282 275 265 259 256 255 253 251 251 251 251 250 247 244 242 238 234 230 226 223 220 217 216 215 212 210 209 208 208 209 212 215 219 223
225 219 219 225 228 237 232 220 235 253 255 206 210 215 223 233 237 242 249 247 243 244 248 250 252 251 250 250 248 247 250 254 259 263 264 263 263 263 264 266 267 269 271 274 278 281 282 283 284 287 290 289 284 276 266 259 255 253 252 251 250 248 247 246 243 241 238 235 231 228 225 223 220 218 216 214 211 209 207 207 208 209 212 215 219 222
222 225 227 227 215 221 238 233 240 262 264 211 199 202 208 222 227 232 248 249 238 237 244 248 252 251 249 249 248 250 254 258 266 270 265 264 264 262 262 262 263 266 271 276 281 282 281 282 284 289 293 290 284 280 273 263 257 253 249 246 244 243 241 240 239 238 236 234 231 229 227 225 222 219 217 214 210 208 207 207 207 209 212 215 218 222
220 223 223 227 218 216 239 246 242 251 247 223 216 212 210 225 230 231 249 254 230 223 237 240 242 244 247 251 253 254 258 260 258 259 259 260 261 261 263 265 266 267 271 277 280 280 280 283 287 291 294 291 285 283 276 264 257 250 243 240 240 239 238 237 237 237 236 235 233 230 228 226 223 220 216 212 209 207 206 206 207 208 211 214 217 222
223 224 222 231 230 217 233 242 234 243 246 210 215 219 217 229 236 242 260 262 219 214 235 239 242 245 245 251 254 251 252 255 247 250 256 259 262 263 263 266 271 273 276 278 276 276 282 287 286 287 293 294 289 285 278 267 255 245 240 239 238 237 237 237 238 239 238 236 234 231 228 226 223 219 215 211 208 207 205 205 206 207 209 212 216 221
223 223 223 230 229 222 233 239 234 247 242 179 197 213 217 223 227 239 257 258 193 209 230 234 240 248 248 246 249 240 230 240 243 249 255 258 260 263 266 273 282 284 283 281 277 279 284 283 278 280 289 294 291 287 280 269 255 246 243 242 239 239 241 241 241 240 239 236 232 229 227 225 221 217 213 209 206 205 204 205 206 206 209 212 215 220
231 228 224 228 233 230 232 240 248 247 226 196 202 201 205 218 223 230 254 294 4 263 284 290 278 291 301 287 279 279 272 280 279 270 268 271 275 280 289 297 299 295 290 285 282 282 280 276 273 277 283 289 292 290 282 270 257 251 248 244 244 247 248 244 240 238 237 234 230 227 224 222 219 215 211 208 206 204 203 204 206 207 209 212 215 220
261 258 234 228 235 233 229 242 252 245 338 345 270 229 198 193 229 251 302 355 13 10 4 2 358 360 360 350 344 342 336 337 339 333 331 335 335 335 336 333 330 329 322 313 307 301 291 284 282 283 285 291 297 296 289 277 265 258 253 253 256 255 249 242 238 237 236 232 228 224 221 218 216 212 209 206 205 204 203 203 205 207 209 211 215 220
295 300 290 255 248 248 239 241 237 233 4 3 338 297 127 44 322 314 334 358 11 19 14 4 0 4 3 354 347 344 343 344 345 345 344 343 342 343 341 337 336 337 337 336 332 324 314 304 299 296 294 296 299 298 293 284 273 264 261 264 264 255 244 239 238 236 234 229 225 221 218 215 211 208 206 204 204 204 204 204 204 206 208 211 215 219
277 270 292 310 328 321 274 276 308 277 336 353 357 354 343 332 325 328 341 350 359 9 7 355 351 353 353 348 342 340 341 340 338 337 335 332 331 331 330 331 332 331 333 334 331 327 322 316 310 303 298 297 297 295 293 288 280 271 268 269 264 252 242 238 235 233 230 226 222 218 215 212 208 205 204 203 203 204 204 205 205 205 206 210 214 219
286 286 290 285 288 296 263 276 298 306 310 320 318 305 315 318 314 323 352 352 342 347 348 341 338 339 341 341 337 335 336 333 329 327 325 323 323 324 325 327 327 327 328 327 325 325 325 322 317 307 299 298 297 294 292 289 285 279 274 269 261 252 245 239 235 232 228 223 219 216 212 209 206 203 203 203 204 204 204 205 205 205 206 209 213 218
313 311 296 270 289 311 283 261 280 308 316 313 309 307 312 313 305 320 348 343 331 331 331 327 326 327 328 330 329 326 324 321 318 317 317 317 317 318 320 321 321 322 324 322 321 321 320 319 316 308 301 300 299 298 295 291 288 286 281 271 262 256 249 242 236 231 226 221 217 213 210 206 203 201 201 202 203 205 206 207 207 207 209 211 213 216
317 304 292 291 308 313 295 274 291 306 303 301 303 308 316 325 330 336 337 331 325 324 323 319 319 319 317 316 315 312 310 309 308 308 310 312 313 314 315 315 315 316 316 316 315 314 312 311 309 305 302 300 299 299 297 292 290 288 282 272 265 259 250 242 236 231 225 220 216 211 208 205 202 200 200 200 201 202 203 205 207 210 212 213 213 214
305 305 304 299 292 286 281 287 295 295 293 294 299 312 331 341 339 336 334 332 330 327 325 324 322 320 317 316 314 311 308 305 303 302 303 305 307 308 308 308 308 308 309 308 307 305 304 303 301 301 300 300 300 298 295 292 290 287 281 274 267 260 251 242 237 231 225 220 215 210 206 204 202 200 199 199 199 199 200 202 205 209 213 215 216 217
291 294 295 289 287 283 278 287 299 304 308 309 311 327 343 342 338 339 340 339 338 335 332 330 327 325 323 321 319 316 311 306 305 304 302 301 301 301 301 303 304 304 304 304 302 300 298 297 297 298 299 300 300 297 294 292 288 283 280 275 268 260 252 243 236 229 224 218 213 209 205 202 202 201 199 198 197 197 200 203 207 210 211 211 212 214
278 279 280 283 289 286 288 314 330 328 317 311 320 343 357 349 340 339 339 338 339 338 335 331 327 323 321 320 319 318 313 311 311 311 309 306 303 301 301 301 302 302 302 302 302 300 297 295 295 295 296 298 297 294 292 289 283 278 276 273 266 259 251 243 234 226 221 216 211 207 204 201 200 200 200 199 196 194 194 197 202 206 208 207 207 207
263 271 282 288 287 286 304 335 348 341 312 309 324 340 348 342 337 337 335 334 333 330 328 324 320 317 315 314 313 311 307 306 307 306 305 303 300 299 298 298 297 298 298 299 299 297 295 295 295 294 295 297 296 293 289 284 277 274 271 266 262 256 249 242 233 224 219 215 211 208 204 201 198 198 198 198 198 197 195 193 193 195 198 201 203 202